When you browse on this site, cookies collect data to enhance your experience and personalize the content and advertising you see.
Visit our Privacy Policy to learn more. By continuing to use the site, you agree to this use of cookies and data.
  • In Hungary
  • List of Countries
  • For 7 days
  • Water Temperature
  • Weather Map
  • News
  • Weather Widgets
  • user-avatar
    Login

    Hourly Weather Nang Rong

    Today, 13 December, Friday

    Time Temperature Precipitation Wind Pressure Humidity
    00:00 +21°C° 0 mm 2 mps 744 mmHg 71%
    01:00 +20°C° 0 mm 2 mps 744 mmHg 72%
    02:00 +19°C° 0 mm 2 mps 744 mmHg 76%
    03:00 +19°C° 0 mm 2 mps 744 mmHg 81%
    04:00 +18°C° 0 mm 2 mps 744 mmHg 86%
    05:00 +18°C° 0 mm 2 mps 744 mmHg 87%
    06:00 +18°C° 0 mm 2 mps 745 mmHg 89%
    07:00 +18°C° 0 mm 2 mps 745 mmHg 89%
    08:00 +20°C° 0 mm 2 mps 746 mmHg 81%
    09:00 +23°C° 0 mm 2 mps 746 mmHg 73%
    10:00 +26°C° 0 mm 3 mps 747 mmHg 64%
    11:00 +27°C° 0 mm 3 mps 746 mmHg 59%
    12:00 +29°C° 0 mm 3 mps 745 mmHg 53%
    13:00 +30°C° 0 mm 3 mps 745 mmHg 47%
    14:00 +31°C° 0 mm 3 mps 744 mmHg 47%
    15:00 +31°C° 0 mm 3 mps 744 mmHg 46%
    16:00 +31°C° 0 mm 3 mps 743 mmHg 45%
    17:00 +29°C° 0 mm 2 mps 744 mmHg 50%
    18:00 +28°C° 0 mm 2 mps 744 mmHg 55%
    19:00 +26°C° 0 mm 2 mps 744 mmHg 61%
    20:00 +25°C° 0 mm 2 mps 745 mmHg 63%
    21:00 +25°C° 0 mm 2 mps 745 mmHg 65%
    22:00 +24°C° 0 mm 2 mps 745 mmHg 67%
    23:00 +24°C° 0 mm 2 mps 745 mmHg 70%

    Tomorrow, 14 December, Saturday

    Time Temperature Precipitation Wind Pressure Humidity
    00:00 +23°C° 0 mm 2 mps 745 mmHg 73%
    01:00 +21°C° 0 mm 3 mps 745 mmHg 77%
    02:00 +21°C° 0 mm 3 mps 744 mmHg 79%
    03:00 +20°C° 0 mm 3 mps 744 mmHg 82%
    04:00 +19°C° 0 mm 2 mps 744 mmHg 84%
    05:00 +19°C° 0 mm 2 mps 745 mmHg 86%
    06:00 +19°C° 0 mm 2 mps 745 mmHg 87%
    07:00 +19°C° 0 mm 2 mps 746 mmHg 89%
    08:00 +21°C° 0 mm 2 mps 746 mmHg 80%
    09:00 +24°C° 0 mm 3 mps 746 mmHg 72%
    10:00 +26°C° 0 mm 3 mps 747 mmHg 63%
    11:00 +28°C° 0 mm 3 mps 746 mmHg 59%
    12:00 +29°C° 0 mm 3 mps 745 mmHg 54%
    13:00 +31°C° 0 mm 3 mps 744 mmHg 49%
    14:00 +31°C° 0 mm 3 mps 744 mmHg 48%
    15:00 +33°C° 0 mm 3 mps 743 mmHg 47%
    16:00 +33°C° 0 mm 3 mps 742 mmHg 46%
    17:00 +30°C° 0 mm 2 mps 742 mmHg 51%
    18:00 +28°C° 0 mm 2 mps 743 mmHg 56%
    19:00 +27°C° 0 mm 2 mps 743 mmHg 61%
    20:00 +26°C° 0 mm 2 mps 743 mmHg 63%
    21:00 +25°C° 0 mm 2 mps 744 mmHg 65%
    22:00 +25°C° 0 mm 2 mps 744 mmHg 67%
    23:00 +24°C° 0 mm 2 mps 744 mmHg 69%

    Day after tomorrow, 15 December, Sunday

    Time Temperature Precipitation Wind Pressure Humidity
    00:00 +24°C° 0 mm 2 mps 744 mmHg 71%
    01:00 +23°C° 0 mm 2 mps 743 mmHg 73%
    02:00 +23°C° 0 mm 2 mps 743 mmHg 77%
    03:00 +21°C° 0 mm 2 mps 743 mmHg 81%
    04:00 +21°C° 0 mm 2 mps 743 mmHg 84%
    05:00 +20°C° 0 mm 2 mps 743 mmHg 87%
    06:00 +20°C° 0 mm 2 mps 743 mmHg 89%
    07:00 +21°C° 0 mm 1 mps 744 mmHg 91%
    08:00 +23°C° 0 mm 2 mps 744 mmHg 83%
    09:00 +25°C° 0 mm 2 mps 745 mmHg 74%
    10:00 +27°C° 0 mm 3 mps 745 mmHg 66%
    11:00 +29°C° 0 mm 3 mps 744 mmHg 60%
    12:00 +30°C° 0 mm 3 mps 744 mmHg 53%
    13:00 +33°C° 0 mm 3 mps 743 mmHg 47%
    14:00 +33°C° 0 mm 3 mps 742 mmHg 46%
    15:00 +34°C° 0 mm 3 mps 742 mmHg 45%
    16:00 +34°C° 0 mm 3 mps 741 mmHg 44%
    17:00 +31°C° 0 mm 3 mps 741 mmHg 49%
    18:00 +29°C° 0 mm 2 mps 741 mmHg 54%
    19:00 +28°C° 0 mm 2 mps 742 mmHg 58%
    20:00 +27°C° 0 mm 2 mps 742 mmHg 60%
    21:00 +27°C° 0 mm 2 mps 742 mmHg 62%
    22:00 +26°C° 0 mm 1 mps 743 mmHg 63%
    23:00 +26°C° 0 mm 2 mps 743 mmHg 65%

    16 December, Monday

    Time Temperature Precipitation Wind Pressure Humidity
    00:00 +25°C° 0 mm 2 mps 742 mmHg 67%
    01:00 +25°C° 0 mm 2 mps 742 mmHg 68%
    02:00 +24°C° 0 mm 2 mps 742 mmHg 72%
    03:00 +23°C° 0 mm 2 mps 742 mmHg 75%
    04:00 +21°C° 0 mm 2 mps 741 mmHg 79%
    05:00 +21°C° 0 mm 2 mps 742 mmHg 81%
    06:00 +21°C° 0 mm 2 mps 742 mmHg 84%
    07:00 +21°C° 0 mm 2 mps 743 mmHg 86%
    08:00 +24°C° 0 mm 2 mps 743 mmHg 78%
    09:00 +26°C° 0 mm 3 mps 744 mmHg 69%
    10:00 +28°C° 0 mm 3 mps 744 mmHg 61%
    11:00 +29°C° 0 mm 3 mps 744 mmHg 55%
    12:00 +31°C° 0 mm 3 mps 743 mmHg 50%
    13:00 +34°C° 0 mm 3 mps 742 mmHg 44%
    14:00 +34°C° 0 mm 3 mps 742 mmHg 43%
    15:00 +34°C° 0 mm 3 mps 741 mmHg 41%
    16:00 +34°C° 0 mm 3 mps 741 mmHg 40%
    17:00 +33°C° 0 mm 3 mps 741 mmHg 45%
    18:00 +30°C° 0 mm 2 mps 741 mmHg 49%
    19:00 +28°C° 0 mm 1 mps 742 mmHg 54%
    20:00 +28°C° 0 mm 1 mps 742 mmHg 56%
    21:00 +27°C° 0 mm 1 mps 742 mmHg 58%
    22:00 +26°C° 0 mm 1 mps 743 mmHg 60%
    23:00 +26°C° 0 mm 1 mps 742 mmHg 62%

    17 December, Tuesday

    Time Temperature Precipitation Wind Pressure Humidity
    00:00 +26°C° 0 mm 1 mps 742 mmHg 63%
    01:00 +25°C° 0 mm 1 mps 742 mmHg 65%
    02:00 +25°C° 0 mm 1 mps 742 mmHg 68%
    03:00 +24°C° 0 mm 1 mps 742 mmHg 71%
    04:00 +24°C° 0 mm 2 mps 742 mmHg 74%
    05:00 +23°C° 0 mm 2 mps 742 mmHg 78%
    06:00 +23°C° 0 mm 2 mps 742 mmHg 81%
    07:00 +23°C° 0 mm 2 mps 743 mmHg 85%
    08:00 +25°C° 0 mm 2 mps 743 mmHg 76%
    09:00 +27°C° 0 mm 2 mps 743 mmHg 67%
    10:00 +30°C° 0 mm 2 mps 744 mmHg 58%
    11:00 +31°C° 0 mm 2 mps 743 mmHg 54%
    12:00 +32°C° 0 mm 2 mps 742 mmHg 50%
    13:00 +34°C° 0 mm 2 mps 742 mmHg 45%
    14:00 +35°C° 0 mm 2 mps 741 mmHg 44%
    15:00 +35°C° 0 mm 2 mps 741 mmHg 43%
    16:00 +35°C° 0 mm 2 mps 740 mmHg 41%
    17:00 +34°C° 0 mm 2 mps 741 mmHg 45%
    18:00 +31°C° 0 mm 2 mps 741 mmHg 49%
    19:00 +29°C° 0 mm 2 mps 741 mmHg 53%
    20:00 +29°C° 0 mm 1 mps 742 mmHg 55%
    21:00 +28°C° 0 mm 1 mps 742 mmHg 58%
    22:00 +27°C° 0 mm 1 mps 743 mmHg 60%
    23:00 +27°C° 0 mm 1 mps 742 mmHg 62%

    18 December, Wednesday

    Time Temperature Precipitation Wind Pressure Humidity
    00:00 +24°C° 0 mm 0 mps 742 mmHg 64%
    01:00 +24°C° 0 mm 0 mps 742 mmHg 67%
    02:00 +25°C° 0 mm 1 mps 742 mmHg 69%
    03:00 +25°C° 0 mm 1 mps 742 mmHg 71%
    04:00 +24°C° 0 mm 1 mps 742 mmHg 72%
    05:00 +24°C° 0 mm 1 mps 742 mmHg 75%
    06:00 +24°C° 0 mm 1 mps 743 mmHg 77%
    07:00 +24°C° 0 mm 1 mps 743 mmHg 79%
    08:00 +26°C° 0 mm 2 mps 743 mmHg 69%
    09:00 +28°C° 0 mm 2 mps 744 mmHg 60%
    10:00 +30°C° 0 mm 3 mps 744 mmHg 50%
    11:00 +31°C° 0 mm 2 mps 744 mmHg 47%
    12:00 +32°C° 0 mm 2 mps 743 mmHg 44%
    13:00 +34°C° 0 mm 2 mps 742 mmHg 41%
    14:00 +35°C° 0 mm 2 mps 741 mmHg 40%
    15:00 +35°C° 0 mm 2 mps 741 mmHg 38%
    16:00 +35°C° 0 mm 2 mps 740 mmHg 36%
    17:00 +32°C° 0 mm 1 mps 741 mmHg 41%
    18:00 +30°C° 0 mm 1 mps 741 mmHg 46%
    19:00 +28°C° 0 mm 1 mps 741 mmHg 51%
    20:00 +27°C° 0 mm 1 mps 742 mmHg 53%
    21:00 +27°C° 0 mm 1 mps 742 mmHg 55%
    22:00 +26°C° 0 mm 1 mps 742 mmHg 57%
    23:00 +24°C° 0 mm 0 mps 742 mmHg 59%
    Show more